Regional Weather Roundup
Issued by NWS Little Rock, AR

Home | Current Version | Previous Version | Text Only | Print | Product List | Glossary On
Versions: 1 2 3 4 5 6 7 8 9 10 11 12 13 14 15 16 17 18 19 20 21 22 23 24 25 26 27 28 29 30 31 32 33 34 35 36 37 38 39 40 41 42 43 44 45 46
000
ASUS44 KLZK 250705
RWRLZK

WEATHER ROUNDUP FOR ARKANSAS
NATIONAL WEATHER SERVICE LITTLE ROCK AR
100 AM CST SAT FEB 25 2017

NOTE: "FAIR" INDICATES FEW OR NO CLOUDS BELOW 12,000 FEET WITH NO
SIGNIFICANT WEATHER AND/OR OBSTRUCTIONS TO VISIBILITY.

ARZ001-003-010-029-250800-
NORTHWEST ARKANSAS

CITY           SKY/WX    TMP DP  RH WIND       PRES   REMARKS
FAYETTEVILLE   CLOUDY    30  21  69 NW13      30.08S WCI  20
FORT SMITH     PTCLDY    34  20  56 NW13      30.14R WCI  25
HARRISON       CLOUDY    30  19  63 NW9G22    30.03R WCI  22
BENTONVILLE    CLOUDY    30  19  64 NW14G20   30.09R WCI  20
ROGERS         CLOUDY    30  21  69 NW16G23   30.08R WCI  19
SILOAM SPGS    CLOUDY    30  19  64 N16G25    30.10R WCI  19
HIGHFILL       CLOUDY    31  20  63 NW15G25   30.09R WCI  20
$$

ARZ004-005-016-250800-
NORTH CENTRAL ARKANSAS

CITY           SKY/WX    TMP DP  RH WIND       PRES   REMARKS
BATESVILLE     CLEAR     37  23  56 W12G20    30.00R
FLIPPIN        PTCLDY    34  16  47 NW9G22    30.02R WCI  26
MTN HOME       PTCLDY    32  19  58 N10G21    30.01R WCI  24
$$

ARZ040-041-250800-
WEST CENTRAL ARKANSAS

CITY           SKY/WX    TMP DP  RH WIND       PRES   REMARKS
MENA           CLEAR     37  27  65 N8        30.07R
MOUNT IDA      CLEAR     39  22  50 NW8G18    30.03R
$$

ARZ009-017-025-026-028-250800-
NORTHEAST ARKANSAS

CITY           SKY/WX    TMP DP  RH WIND       PRES   REMARKS
CORNING        FAIR      39  27  60 NW26G32   29.93R
JONESBORO      CLEAR     40  25  55 NW20G29   29.94R
NEWPORT        CLEAR     40  26  57 NW29G35   29.97
WALNUT RIDGE   CLEAR     39  21  48 W25G35    29.94S
BLYTHEVILLE    CLEAR     44  31  60 NW16G23   29.91R
$$

ARZ022-023-033-042-044-250800-
CENTRAL ARKANSAS

CITY           SKY/WX    TMP DP  RH WIND       PRES   REMARKS
LITTLE ROCK    CLEAR     43  29  57 NW24G30   30.01R
N LITTLE ROCK    N/A     41  28  59 NW9G22    30.01R
JACKSONVILLE   CLEAR     43  27  53 W15G23    30.00R
SEARCY         CLEAR     41  28  60 NW12G17   30.01R
HOT SPRINGS    CLEAR     42  24  49 NW13G20   30.03R
RUSSELLVILLE   CLEAR     38  23  55 NW10      30.05R
CLINTON        FAIR      37  23  56 VRB6G16   30.03R
$$

ARZ036-250800-
EAST ARKANSAS

CITY           SKY/WX    TMP DP  RH WIND       PRES   REMARKS
WEST MEMPHIS   CLEAR     45  34  65 NW9G21    29.94R
$$

ARZ050-053-066-070-073-250800-
SOUTHWEST ARKANSAS

CITY           SKY/WX    TMP DP  RH WIND       PRES   REMARKS
ARKADELPHIA    FAIR      44  27  51 NW10G21   30.05R
CAMDEN         CLEAR     46  27  46 NW8       30.03R
TEXARKANA      CLEAR     44  24  45 NW16      30.05S
EL DORADO      CLEAR     48  32  53 NW10      30.01R
DE QUEEN       CLEAR     41  26  55 NW6       30.07R
$$

ARZ056-057-069-250800-
SOUTHEAST ARKANSAS

CITY           SKY/WX    TMP DP  RH WIND       PRES   REMARKS
PINE BLUFF     CLEAR     46  30  53 NW10      30.00R
STUTTGART      CLEAR     46  27  46 NW21      29.98R
MONTICELLO     CLEAR     49  31  49 NW6       29.98R

$$






USA.gov is the U.S. government's official web portal to all federal, state and local government web resources and services.